| time (UTC) | temp F | wind direction | speed MPH | gust MPH | rain 1hr in | rain 24hr in | rain mn in | humidity % | barometer mb |
| 20260504173031 | 54 | 209 | 4.0 | 7.0 | 0.00 | 0.14 | 0.14 | 87 | 1010.7 |
| 20260504172513 | 54 | 175 | 1.0 | 3.0 | 0.00 | 0.14 | 0.14 | 87 | 1010.8 |
| 20260504172014 | 54 | 239 | 0.0 | 5.0 | 0.00 | 0.14 | 0.14 | 87 | 1010.8 |
| 20260504171528 | 55 | 55 | 1.0 | 7.0 | 0.00 | 0.14 | 0.14 | 86 | 1010.8 |
| 20260504171015 | 55 | 216 | 2.0 | 8.0 | 0.00 | 0.14 | 0.14 | 85 | 1010.8 |
| 20260504170514 | 56 | 29 | 2.0 | 8.0 | 0.00 | 0.14 | 0.14 | 83 | 1010.7 |
| 20260504151014 | 60 | 234 | 4.0 | 12.0 | 0.00 | 0.13 | 0.13 | 76 | 1011.2 |
| 20260504150515 | 60 | 195 | 4.0 | 12.0 | 0.00 | 0.13 | 0.13 | 76 | 1011.2 |
| 20260504141013 | 62 | 107 | 3.0 | 15.0 | 0.00 | 0.13 | 0.13 | 73 | 1011.5 |
| 20260504140514 | 63 | 189 | 5.0 | 15.0 | 0.00 | 0.13 | 0.13 | 71 | 1011.5 |
| 20260504130513 | 59 | 0 | 0.0 | 7.0 | 0.00 | 0.13 | 0.13 | 80 | 1011.7 |
| 20260504110514 | 58 | 0 | 0.0 | 1.0 | 0.00 | 0.13 | 0.13 | 80 | 1013.3 |
| 20260504100513 | 57 | 0 | 0.0 | 1.0 | 0.00 | 0.13 | 0.13 | 85 | 1013.6 |
| 20260504081527 | 54 | 0 | 0.0 | 1.0 | 0.00 | 0.13 | 0.13 | 87 | 1013.6 |
| 20260504081011 | 53 | 0 | 0.0 | 6.0 | 0.00 | 0.13 | 0.13 | 88 | 1013.5 |
| 20260504080511 | 53 | 95 | 0.0 | 7.0 | 0.00 | 0.13 | 0.13 | 87 | 1013.5 |
| 20260504050515 | 52 | 279 | 2.0 | 10.0 | 0.01 | 0.02 | 0.02 | 88 | 1012.8 |
| 20260504045515 | 52 | 184 | 3.0 | 8.0 | 0.02 | 0.02 | 0.02 | 90 | 1012.9 |
| 20260504045014 | 52 | 245 | 2.0 | 6.0 | 0.02 | 0.02 | 0.02 | 90 | 1012.8 |
| 20260504044532 | 52 | 88 | 1.0 | 4.0 | 0.02 | 0.02 | 0.02 | 90 | 1012.8 |
| 20260504044015 | 52 | 205 | 0.0 | 3.0 | 0.02 | 0.02 | 0.02 | 90 | 1012.9 |
| 20260504043515 | 52 | 248 | 1.0 | 4.0 | 0.02 | 0.02 | 0.02 | 90 | 1012.9 |
| 20260504043030 | 52 | 237 | 1.0 | 6.0 | 0.02 | 0.02 | 0.02 | 89 | 1012.9 |
| 20260504042514 | 52 | 258 | 2.0 | 9.0 | 0.02 | 0.02 | 0.02 | 89 | 1012.9 |
| 20260504042014 | 52 | 274 | 1.0 | 9.0 | 0.02 | 0.02 | 0.02 | 89 | 1012.9 |
| 20260504041531 | 53 | 98 | 2.0 | 9.0 | 0.01 | 0.01 | 0.01 | 88 | 1012.9 |
| 20260504041014 | 53 | 155 | 1.0 | 12.0 | 0.01 | 0.01 | 0.01 | 89 | 1012.9 |
| 20260504040515 | 53 | 222 | 2.0 | 12.0 | 0.00 | 0.00 | 0.00 | 89 | 1012.7 |
| 20260504040030 | 53 | 195 | 2.0 | 7.0 | 0.00 | 0.00 | 0.00 | 89 | 1012.8 |
| 20260504035513 | 53 | 287 | 3.0 | 7.0 | 0.00 | 0.00 | 0.00 | 89 | 1012.9 |
| 20260504035015 | 53 | 339 | 2.0 | 4.0 | 0.00 | 0.00 | 0.00 | 89 | 1012.9 |
| 20260504034531 | 53 | 334 | 1.0 | 7.0 | 0.00 | 0.00 | 0.00 | 89 | 1013.0 |
| 20260504034015 | 53 | 281 | 1.0 | 7.0 | 0.00 | 0.00 | 0.00 | 88 | 1013.1 |
| 20260504033516 | 53 | 229 | 1.0 | 5.0 | 0.00 | 0.00 | 0.00 | 88 | 1013.2 |
| 20260504033029 | 53 | 279 | 1.0 | 9.0 | 0.00 | 0.00 | 0.00 | 87 | 1013.2 |
| 20260504032516 | 53 | 158 | 1.0 | 9.0 | 0.00 | 0.00 | 0.00 | 87 | 1013.2 |
| 20260504032015 | 53 | 297 | 2.0 | 9.0 | 0.00 | 0.00 | 0.00 | 87 | 1013.2 |
| 20260504031528 | 53 | 39 | 2.0 | 8.0 | 0.00 | 0.00 | 0.00 | 87 | 1013.1 |
| 20260504031015 | 53 | 98 | 3.0 | 8.0 | 0.00 | 0.00 | 0.00 | 87 | 1013.1 |
| 20260504030514 | 53 | 221 | 2.0 | 8.0 | 0.00 | 0.00 | 0.00 | 87 | 1013.1 |
| 20260504030030 | 53 | 182 | 2.0 | 8.0 | 0.00 | 0.00 | 0.00 | 87 | 1013.0 |
| 20260504025515 | 53 | 207 | 2.0 | 8.0 | 0.00 | 0.00 | 0.00 | 87 | 1013.1 |
| 20260504025015 | 53 | 135 | 2.0 | 14.0 | 0.00 | 0.00 | 0.00 | 87 | 1013.2 |
| 20260504024530 | 53 | 199 | 4.0 | 14.0 | 0.00 | 0.00 | 0.00 | 87 | 1013.1 |
| 20260504024014 | 52 | 179 | 3.0 | 9.0 | 0.00 | 0.00 | 0.00 | 88 | 1013.1 |
| 20260504023514 | 53 | 101 | 2.0 | 6.0 | 0.00 | 0.00 | 0.00 | 87 | 1013.1 |
| 20260504023032 | 53 | 117 | 1.0 | 9.0 | 0.00 | 0.00 | 0.00 | 87 | 1013.2 |
| 20260504022514 | 53 | 87 | 3.0 | 10.0 | 0.00 | 0.00 | 0.00 | 87 | 1013.3 |
| 20260504022015 | 53 | 127 | 3.0 | 11.0 | 0.00 | 0.00 | 0.00 | 87 | 1013.3 |
| 20260504021531 | 53 | 86 | 2.0 | 11.0 | 0.00 | 0.00 | 0.00 | 87 | 1013.2 |
| 20260504021014 | 53 | 237 | 1.0 | 8.0 | 0.00 | 0.00 | 0.00 | 87 | 1013.3 |
| 20260504020514 | 53 | 98 | 2.0 | 10.0 | 0.00 | 0.00 | 0.00 | 87 | 1013.4 |
| 20260504020029 | 53 | 225 | 3.0 | 10.0 | 0.00 | 0.00 | 0.00 | 86 | 1013.4 |
| 20260504015514 | 53 | 142 | 4.0 | 15.0 | 0.00 | 0.00 | 0.00 | 86 | 1013.5 |
| 20260504015014 | 53 | 88 | 5.0 | 15.0 | 0.00 | 0.00 | 0.00 | 86 | 1013.4 |
| 20260504014528 | 53 | 130 | 3.0 | 9.0 | 0.00 | 0.00 | 0.00 | 86 | 1013.4 |
| 20260504014013 | 53 | 117 | 4.0 | 18.0 | 0.00 | 0.00 | 0.00 | 85 | 1013.4 |
| 20260504013514 | 53 | 205 | 2.0 | 18.0 | 0.00 | 0.00 | 0.00 | 84 | 1013.3 |
| 20260504013035 | 53 | 22 | 2.0 | 7.0 | 0.00 | 0.00 | 0.00 | 84 | 1013.5 |
| 20260504012515 | 53 | 123 | 2.0 | 7.0 | 0.00 | 0.00 | 0.00 | 85 | 1013.5 |
| 20260504012014 | 53 | 68 | 1.0 | 10.0 | 0.00 | 0.00 | 0.00 | 85 | 1013.5 |
| 20260504011533 | 53 | 210 | 2.0 | 10.0 | 0.00 | 0.00 | 0.00 | 84 | 1013.6 |
| 20260504011014 | 53 | 141 | 3.0 | 10.0 | 0.00 | 0.00 | 0.00 | 84 | 1013.4 |
| 20260504010514 | 53 | 149 | 2.0 | 10.0 | 0.00 | 0.00 | 0.00 | 83 | 1013.5 |
| 20260504010031 | 53 | 90 | 4.0 | 12.0 | 0.00 | 0.00 | 0.00 | 82 | 1013.4 |
| 20260504005514 | 53 | 57 | 3.0 | 12.0 | 0.00 | 0.00 | 0.00 | 81 | 1013.4 |
| 20260504005014 | 53 | 227 | 4.0 | 14.0 | 0.00 | 0.00 | 0.00 | 81 | 1013.5 |
| 20260504004530 | 53 | 30 | 5.0 | 14.0 | 0.00 | 0.00 | 0.00 | 80 | 1013.5 |
| 20260504004014 | 53 | 78 | 5.0 | 13.0 | 0.00 | 0.00 | 0.00 | 80 | 1013.7 |
| 20260504003514 | 53 | 257 | 4.0 | 13.0 | 0.00 | 0.00 | 0.00 | 79 | 1013.6 |
| 20260504003038 | 53 | 100 | 2.0 | 9.0 | 0.00 | 0.00 | 0.00 | 80 | 1013.8 |
| 20260504002514 | 53 | 116 | 4.0 | 9.0 | 0.00 | 0.00 | 0.00 | 80 | 1013.9 |
| 20260504002014 | 53 | 94 | 3.0 | 11.0 | 0.00 | 0.00 | 0.00 | 81 | 1014.0 |
| 20260504001535 | 53 | 123 | 4.0 | 11.0 | 0.00 | 0.00 | 0.00 | 81 | 1014.1 |
| 20260504001014 | 53 | 125 | 4.0 | 10.0 | 0.00 | 0.00 | 0.00 | 80 | 1014.2 |
| 20260504000514 | 53 | 142 | 3.0 | 9.0 | 0.00 | 0.00 | 0.00 | 79 | 1014.1 |
| 20260504000051 | 53 | 165 | 3.0 | 11.0 | 0.00 | 0.00 | 0.00 | 79 | 1014.1 |
| 20260503235514 | 54 | 192 | 3.0 | 12.0 | 0.00 | 0.00 | 0.00 | 78 | 1014.1 |
| 20260503235014 | 54 | 164 | 6.0 | 12.0 | 0.00 | 0.00 | 0.00 | 77 | 1014.2 |
| 20260503234533 | 54 | 163 | 3.0 | 10.0 | 0.00 | 0.00 | 0.00 | 76 | 1014.3 |
| 20260503234014 | 54 | 182 | 3.0 | 16.0 | 0.00 | 0.00 | 0.00 | 76 | 1014.3 |
| 20260503233513 | 54 | 123 | 5.0 | 16.0 | 0.00 | 0.00 | 0.00 | 77 | 1014.3 |
| 20260503233031 | 54 | 112 | 2.0 | 11.0 | 0.00 | 0.00 | 0.00 | 78 | 1014.3 |
| 20260503232514 | 54 | 92 | 4.0 | 15.0 | 0.00 | 0.00 | 0.00 | 78 | 1014.4 |
| 20260503232014 | 54 | 30 | 5.0 | 15.0 | 0.00 | 0.00 | 0.00 | 78 | 1014.4 |
| 20260503231529 | 54 | 177 | 5.0 | 14.0 | 0.00 | 0.00 | 0.00 | 79 | 1014.5 |
| 20260503231015 | 54 | 232 | 2.0 | 12.0 | 0.00 | 0.00 | 0.00 | 79 | 1014.5 |
| 20260503230514 | 54 | 275 | 3.0 | 12.0 | 0.00 | 0.00 | 0.00 | 79 | 1014.6 |
| 20260503230028 | 54 | 178 | 4.0 | 11.0 | 0.00 | 0.00 | 0.00 | 79 | 1014.7 |
| 20260503225513 | 54 | 159 | 4.0 | 11.0 | 0.00 | 0.00 | 0.00 | 78 | 1014.7 |
| 20260503225013 | 54 | 74 | 2.0 | 12.0 | 0.00 | 0.00 | 0.00 | 78 | 1014.7 |
| 20260503224530 | 54 | 142 | 4.0 | 12.0 | 0.00 | 0.00 | 0.00 | 77 | 1014.7 |
| 20260503224014 | 54 | 351 | 2.0 | 14.0 | 0.00 | 0.00 | 0.00 | 78 | 1014.7 |
| 20260503223511 | 54 | 88 | 1.0 | 14.0 | 0.00 | 0.00 | 0.00 | 78 | 1014.6 |
| 20260503223037 | 54 | 182 | 4.0 | 11.0 | 0.00 | 0.00 | 0.00 | 78 | 1014.6 |
| 20260503222514 | 54 | 131 | 5.0 | 11.0 | 0.00 | 0.00 | 0.00 | 78 | 1014.6 |
| 20260503222012 | 54 | 188 | 5.0 | 11.0 | 0.00 | 0.00 | 0.00 | 78 | 1014.7 |
| 20260503221535 | 54 | 227 | 3.0 | 10.0 | 0.00 | 0.00 | 0.00 | 79 | 1014.7 |
| 20260503221014 | 54 | 162 | 4.0 | 9.0 | 0.00 | 0.00 | 0.00 | 79 | 1014.7 |
| 20260503220514 | 54 | 94 | 5.0 | 10.0 | 0.00 | 0.00 | 0.00 | 79 | 1014.7 |
| 20260503220032 | 54 | 142 | 3.0 | 10.0 | 0.00 | 0.00 | 0.00 | 80 | 1014.7 |
| 20260503215513 | 54 | 168 | 4.0 | 14.0 | 0.00 | 0.00 | 0.00 | 80 | 1014.9 |
| 20260503215014 | 54 | 90 | 5.0 | 14.0 | 0.00 | 0.00 | 0.00 | 80 | 1014.7 |
| 20260503214530 | 54 | 219 | 4.0 | 15.0 | 0.00 | 0.00 | 0.00 | 80 | 1014.7 |
| 20260503214019 | 54 | 344 | 4.0 | 15.0 | 0.00 | 0.00 | 0.00 | 81 | 1014.7 |
| 20260503213516 | 54 | 167 | 4.0 | 15.0 | 0.00 | 0.00 | 0.00 | 81 | 1014.6 |
| 20260503213028 | 54 | 173 | 7.0 | 12.0 | 0.00 | 0.00 | 0.00 | 81 | 1014.7 |
| 20260503212514 | 54 | 219 | 3.0 | 12.0 | 0.00 | 0.00 | 0.00 | 80 | 1014.7 |
| 20260503212012 | 54 | 267 | 4.0 | 13.0 | 0.00 | 0.00 | 0.00 | 80 | 1014.7 |
| 20260503211527 | 54 | 103 | 5.0 | 13.0 | 0.00 | 0.00 | 0.00 | 80 | 1014.8 |
| 20260503211014 | 54 | 229 | 4.0 | 10.0 | 0.00 | 0.00 | 0.00 | 80 | 1014.9 |
| 20260503210515 | 54 | 137 | 4.0 | 11.0 | 0.00 | 0.00 | 0.00 | 79 | 1015.0 |
| 20260503210032 | 54 | 180 | 4.0 | 11.0 | 0.00 | 0.00 | 0.00 | 79 | 1015.1 |
| 20260503205513 | 54 | 186 | 2.0 | 8.0 | 0.00 | 0.00 | 0.00 | 78 | 1015.1 |
| 20260503205014 | 54 | 103 | 2.0 | 10.0 | 0.00 | 0.00 | 0.00 | 78 | 1015.2 |
| 20260503204529 | 54 | 194 | 3.0 | 11.0 | 0.00 | 0.00 | 0.00 | 78 | 1015.2 |
| 20260503204013 | 54 | 262 | 2.0 | 11.0 | 0.00 | 0.00 | 0.00 | 78 | 1015.3 |
| 20260503203515 | 54 | 150 | 3.0 | 10.0 | 0.00 | 0.00 | 0.00 | 77 | 1015.2 |
| 20260503203040 | 54 | 218 | 4.0 | 12.0 | 0.00 | 0.00 | 0.00 | 77 | 1015.2 |
| 20260503202511 | 54 | 223 | 2.0 | 12.0 | 0.00 | 0.00 | 0.00 | 76 | 1015.2 |
| 20260503202014 | 54 | 119 | 3.0 | 13.0 | 0.00 | 0.00 | 0.00 | 75 | 1015.1 |
| 20260503201534 | 55 | 54 | 4.0 | 13.0 | 0.00 | 0.00 | 0.00 | 75 | 1015.2 |
| 20260503201014 | 54 | 122 | 4.0 | 11.0 | 0.00 | 0.00 | 0.00 | 75 | 1015.1 |
| 20260503200511 | 54 | 342 | 3.0 | 10.0 | 0.00 | 0.00 | 0.00 | 74 | 1015.1 |
| 20260503200030 | 54 | 157 | 4.0 | 12.0 | 0.00 | 0.00 | 0.00 | 74 | 1015.2 |
| 20260503195512 | 55 | 130 | 4.0 | 12.0 | 0.00 | 0.00 | 0.00 | 74 | 1015.2 |
| 20260503195014 | 55 | 279 | 4.0 | 13.0 | 0.00 | 0.00 | 0.00 | 74 | 1015.3 |
| 20260503194530 | 55 | 107 | 4.0 | 13.0 | 0.00 | 0.00 | 0.00 | 74 | 1015.3 |
| 20260503194014 | 55 | 170 | 4.0 | 12.0 | 0.00 | 0.00 | 0.00 | 74 | 1015.2 |
| 20260503193515 | 55 | 244 | 2.0 | 11.0 | 0.00 | 0.00 | 0.00 | 73 | 1015.2 |
| 20260503193032 | 55 | 261 | 2.0 | 10.0 | 0.00 | 0.00 | 0.00 | 74 | 1015.2 |
| 20260503192515 | 55 | 71 | 1.0 | 8.0 | 0.00 | 0.00 | 0.00 | 74 | 1015.1 |
| 20260503192014 | 55 | 48 | 3.0 | 8.0 | 0.00 | 0.00 | 0.00 | 74 | 1015.1 |
| 20260503191530 | 55 | 89 | 5.0 | 9.0 | 0.00 | 0.00 | 0.00 | 73 | 1015.0 |
| 20260503191013 | 55 | 173 | 4.0 | 9.0 | 0.00 | 0.00 | 0.00 | 74 | 1014.9 |
| 20260503190520 | 55 | 169 | 3.0 | 9.0 | 0.00 | 0.00 | 0.00 | 74 | 1015.1 |
| 20260503190037 | 55 | 246 | 3.0 | 9.0 | 0.00 | 0.00 | 0.00 | 74 | 1015.0 |
| 20260503185515 | 55 | 153 | 1.0 | 9.0 | 0.00 | 0.00 | 0.00 | 74 | 1015.0 |
| 20260503185014 | 55 | 317 | 1.0 | 6.0 | 0.00 | 0.00 | 0.00 | 74 | 1015.0 |
| 20260503184531 | 55 | 227 | 2.0 | 11.0 | 0.00 | 0.00 | 0.00 | 74 | 1015.1 |
| 20260503184014 | 55 | 171 | 2.0 | 11.0 | 0.00 | 0.00 | 0.00 | 74 | 1015.0 |
| 20260503183514 | 56 | 115 | 1.0 | 9.0 | 0.00 | 0.00 | 0.00 | 73 | 1015.0 |
| 20260503183030 | 56 | 215 | 2.0 | 10.0 | 0.00 | 0.00 | 0.00 | 73 | 1014.9 |
| 20260503182516 | 56 | 132 | 4.0 | 11.0 | 0.00 | 0.00 | 0.00 | 72 | 1014.9 |
| 20260503182013 | 56 | 97 | 4.0 | 11.0 | 0.00 | 0.00 | 0.00 | 72 | 1014.7 |
| 20260503181529 | 56 | 193 | 4.0 | 12.0 | 0.00 | 0.00 | 0.00 | 72 | 1015.0 |
| 20260503181014 | 56 | 135 | 4.0 | 12.0 | 0.00 | 0.00 | 0.00 | 71 | 1014.8 |
| 20260503180511 | 57 | 215 | 2.0 | 8.0 | 0.00 | 0.00 | 0.00 | 71 | 1014.7 |
| 20260503180031 | 57 | 159 | 2.0 | 6.0 | 0.00 | 0.00 | 0.00 | 71 | 1014.7 |
| 20260503175514 | 57 | 170 | 2.0 | 9.0 | 0.00 | 0.00 | 0.00 | 70 | 1014.7 |
| 20260503175010 | 57 | 217 | 1.0 | 11.0 | 0.00 | 0.00 | 0.00 | 70 | 1014.7 |
| 20260503174530 | 57 | 201 | 4.0 | 11.0 | 0.00 | 0.00 | 0.00 | 69 | 1014.7 |
| 20260503174016 | 58 | 183 | 5.0 | 11.0 | 0.00 | 0.00 | 0.00 | 68 | 1014.8 |
| 20260503173514 | 58 | 178 | 3.0 | 11.0 | 0.00 | 0.00 | 0.00 | 68 | 1014.9 |